{"data":{"norad_id":62034,"intl_designator":"2024-216C","name":"STARLINK-32615","alt_names":[],"object_type":"PAYLOAD","status":"ACTIVE","operator":null,"country":"US","launch_date":"2024-11-21","launch_site_code":"AFETR","launch_vehicle":null,"mission":null,"orbit_class":"UNKNOWN","rcs_meters":null,"size_class":null,"mass_kg":null,"dimensions":null,"purposes":["comms"],"wikipedia_slug":null,"has_3d_model":false,"image_url":null,"decayed_at":null,"tle_current":{"epoch":"2026-05-24T12:48:29.170944Z","epoch_age_seconds":122095,"freshness":"FRESH","line1":"1 62034U 24216C   26144.53367096  .00011577  00000+0  42944-3 0  9992","line2":"2 62034  43.0005 188.1125 0001538 272.5813  87.4863 15.27588802 84318","mean_motion":15.27588802,"eccentricity":0.0001538,"inclination_deg":43.0005,"raan_deg":188.1125,"arg_perigee_deg":272.5813,"mean_anomaly_deg":87.4863,"bstar":0.00042944,"rev_number":8431,"period_min":94.266205546589,"perigee_km":481.96749344372,"apogee_km":484.07798617969,"semimajor_km":6861.1597398117,"source":"CELESTRAK","updated_at":"2026-05-25T13:38:19.523737Z"}}}